Showing default

GCOM W1, 38337

Orbit data source: Space-Track

GCOM W1, 38337 is a payload satellite owned by JAXA (JP) in SSO that was launched on Thu, 17 May 2012 UTC via an H-IIA 202 launch vehicle from the Tanegashima Space Center (TNSTA). Payload-class satellites include a variety of spacecraft equipped with specific instruments for various scientific and technological missions. These include communications satellites like Starlink; space stations such as the ISS; scientific satellites like the Hubble; Earth observation satellites from companies like Planet Labs, Umbra, and HawkEye 360; GPS; miniature CubeSats for education and research; and military/defense satellites.

Loading next visibility...
Identifier
38337, 2012-025A
Orbit
SSO
Country
Flag of JPJP / JPN
Related business
Manufacturer
NECTF?
Mission
Operational Civil Science
Bus & Motor
GCOM, AOCS
Mass
1,991 kg wet, 1,841 kg dry
Launch date (UTC)
2012-05-17 (13 years ago)
Launch vehicle
H-IIA 202
Launch site
Tanegashima Space Center (TNSTA)
Object type
Payload
Rocket body
Debris
Shape & HBR
Box + 2 Pan + 1 Dish, 8.8 m
Radar Cross Section
35.969 m², Large (>1 m²)

Expand to show TLE details & history
Last TLE update: 12 hours ago

TLE from 12 hours ago
0 GCOM W1
1 38337U 12025A   25297.83907229  .00001061  00000-0  24563-3 0  9990
2 38337  98.2134 236.7034 0001721  86.8393 332.8775 14.57085438714761
Epoch: 2025-10-24T20:08Z
TLE epoch observation values (Epoch: 2025-10-24T20:08:15.845Z)
Latitude
58.81565°
Longitude
-112.56229°
Altitude
711.46 km
Speed
7.506 km/s
True Right ascension
14h 51m 55s
True Declination
58° 39' 43"
Sunlit
Object was in daylight at epoch
Visualization orbit readout
Latitude
Unknown
Longitude
Unknown
Altitude
Unknown
Speed
Unknown
Apparent Right ascension
Unknown
Apparent Declination
Unknown
Sunlit
N/A
Visualization observer readout
Local Sidereal Time
03:33:53
Azimuth
Unknown
Elevation
Unknown
Doppler factor
Unknown
Orbital elements
Apogee altitude
700.904 km
Perigee altitude
698.468 km
Semi-major axis
7,077.823 km
Eccentricity
0.00017
Inclination
98.2134°
RAAN
236.7034°
Arg. of periapsis
86.8393°
True anomaly
332.86851°
Mean anomaly
332.8775°
Eccentric anomaly
332.873°
Mean motion
3.64497 °/min
Orbital period
98.77 mins
BSTAR
0.00024563
Loading maneuver chart data...
Computing Atmospheric mass density...

Documentation

Showing up to 5 results
|